{"data":{"norad_id":66712,"epoch":"2026-09-18T03:54:03.370464Z","epoch_age_seconds":227726,"freshness":"STALE","line1":"1 66712U 25276AY  26261.16253901  .00004578  00000+0  20639-3 0  9994","line2":"2 66712  97.4137 333.4974 0003760  39.1665 320.9843 15.21525252 44562","mean_motion":15.21525252,"eccentricity":0.000376,"inclination_deg":97.4137,"raan_deg":333.4974,"arg_perigee_deg":39.1665,"mean_anomaly_deg":320.9843,"bstar":0.00020639,"rev_number":4456,"period_min":94.641873219466,"perigee_km":498.65264002148,"apogee_km":503.82593098818,"semimajor_km":6879.3762855048,"source":"CELESTRAK","updated_at":"2026-09-20T09:00:34.749338Z"}}